{"data":{"norad_id":69514,"intl_designator":"2026-133G","name":"STARLINK-37607","alt_names":[],"object_type":"PAYLOAD","status":"ACTIVE","operator":null,"country":"US","launch_date":"2026-06-12","launch_site_code":"AFETR","launch_vehicle":null,"mission":null,"orbit_class":"UNKNOWN","rcs_meters":null,"size_class":null,"mass_kg":null,"dimensions":null,"purposes":["comms"],"wikipedia_slug":null,"has_3d_model":false,"image_url":null,"decayed_at":null,"tle_current":{"epoch":"2026-09-19T11:12:05.473728Z","epoch_age_seconds":114779,"freshness":"FRESH","line1":"1 69514U 26133G   26262.46673002  .00020104  00000+0  60437-3 0  9995","line2":"2 69514  53.1572 234.6682 0001998  73.5749 286.5474 15.34408077 16599","mean_motion":15.34408077,"eccentricity":0.0001998,"inclination_deg":53.1572,"raan_deg":234.6682,"arg_perigee_deg":73.5749,"mean_anomaly_deg":286.5474,"bstar":0.00060437,"rev_number":1659,"period_min":93.847264074327,"perigee_km":461.31243868275,"apogee_km":464.04602884977,"semimajor_km":6840.8162337663,"source":"CELESTRAK","updated_at":"2026-09-20T09:00:44.211582Z"}}}